Imperial, NE

12:06 AM MDT on August 23, 2017 (GMT -0600)
Imperial Municipal

Weather History for KIML - June, 2014

Change the Weather History Date:

Saturday, June 7, 2014

  Actual Average Record
Temperature  
Mean Temperature 60 °F 67 °F  
Max Temperature 69 °F 81 °F 100 °F (2006)
Min Temperature 50 °F 54 °F 35 °F (1915)
Degree Days  
Heating Degree Days 5 2  
Month to date heating degree days 5 16  
Since 1 June heating degree days 5 16  
Cooling Degree Days 0 4  
Month to date cooling degree days 37 26  
Year to date cooling degree days 98 70  
Since 1 June cooling degree days 37 26  
Growing Degree Days 8 (Base 50)    
Moisture  
Dew Point 51 °F    
Average Humidity 79    
Maximum Humidity 100    
Minimum Humidity 58    
Precipitation  
Precipitation 0.00 in 0.13 in 2.50 in (1940)
Sea Level Pressure  
Sea Level Pressure 30.08 in    
Wind  
Wind Speed 13 mph (NNE)    
Max Wind Speed 25 mph    
Max Gust Speed 29 mph    
Visibility 10 miles    
Events      
T = Trace of Precipitation, MM = Missing Value Source: NWS Daily Summary

Daily Weather History Graph

Daily Weather History Graph

Search for Another Location

Airport or City:

Trip Planner

Search our weather history database for the weather conditions in past years. The results will help you decide how hot, cold, wet, or windy it might be!

Date:

Astronomy

Jun. 07, 2014 Rise Set
Actual Time 5:16 AM MDT 8:14 PM MDT
Civil Twilight 4:43 AM MDT 8:47 PM MDT
Nautical Twilight 4:01 AM MDT 9:29 PM MDT
Astronomical Twilight 3:13 AM MDT 10:18 PM MDT
Moon 2:33 PM MDT (6/7) 1:40 AM MDT (6/7)
Length of Visible Light 16h 04m
Length of Day
14h 58m
Waxing Gibbous, 68% of the Moon is Illuminated
Jun 7
Waxing Gibbous
Jun 12
Full
Jun 19
Last Quarter
Jun 27
New
Jul 5
First Quarter

Hourly Weather History & Observations

Time (MDT) Temp. Dew Point Humidity Pressure Visibility Wind Dir Wind Speed Gust Speed Precip Events Conditions
12:53 AM 55.0 °F 53.1 °F 93% 29.96 in 10.0 mi North 10.4 mph - N/A   Partly Cloudy
1:06 AM 57.0 °F 54.0 °F 89% 30.03 in 10.0 mi NNE 16.1 mph - N/A   Mostly Cloudy
1:46 AM 53.1 °F 51.1 °F 93% 30.05 in 7.0 mi North 21.9 mph - N/A   Overcast
1:53 AM 53.1 °F 51.1 °F 93% 29.98 in 7.0 mi North 20.7 mph - N/A   Overcast
2:53 AM 51.8 °F 51.8 °F 100% 30.10 in 6.0 mi North 17.3 mph - N/A   Overcast
3:53 AM 51.1 °F 48.9 °F 92% 30.09 in 7.0 mi North 20.7 mph 27.6 mph N/A   Overcast
4:37 AM 50.0 °F 48.0 °F 93% 30.11 in 10.0 mi North 19.6 mph - N/A   Overcast
4:53 AM 50.0 °F 46.9 °F 89% 30.09 in 10.0 mi North 18.4 mph - N/A   Overcast
5:53 AM 50.0 °F 48.2 °F 94% 30.08 in 9.0 mi NNE 11.5 mph - N/A   Overcast
6:53 AM 52.0 °F 48.0 °F 86% 30.05 in 10.0 mi North 6.9 mph - N/A   Mostly Cloudy
7:02 AM 52.0 °F 48.0 °F 86% 30.07 in 10.0 mi North 3.5 mph - N/A   Partly Cloudy
7:53 AM 54.0 °F 48.0 °F 80% 30.09 in 10.0 mi North 20.7 mph - N/A   Scattered Clouds
8:03 AM 53.6 °F 48.2 °F 82% 30.11 in 10.0 mi North 18.4 mph - N/A   Mostly Cloudy
8:53 AM 55.0 °F 48.9 °F 80% 30.10 in 10.0 mi North 16.1 mph - N/A   Overcast
9:50 AM 59.0 °F 50.0 °F 72% 30.13 in 10.0 mi North 13.8 mph - N/A   Overcast
9:53 AM 59.0 °F 50.0 °F 72% 30.10 in 10.0 mi North 15.0 mph - N/A   Overcast
10:53 AM 62.1 °F 51.1 °F 67% 30.09 in 10.0 mi NNW 12.7 mph 20.7 mph N/A   Overcast
11:53 AM 64.0 °F 52.0 °F 65% 30.09 in 10.0 mi NNE 9.2 mph - N/A   Mostly Cloudy
12:53 PM 64.9 °F 51.1 °F 61% 30.08 in 10.0 mi NE 8.1 mph - N/A   Mostly Cloudy
1:30 PM 66.0 °F 52.0 °F 60% 30.11 in 10.0 mi Variable 3.5 mph - N/A   Mostly Cloudy
1:53 PM 64.9 °F 52.0 °F 63% 30.07 in 10.0 mi ENE 10.4 mph - N/A   Overcast
2:03 PM 64.9 °F 52.0 °F 63% 30.10 in 10.0 mi ENE 9.2 mph - N/A   Overcast
2:53 PM 66.9 °F 52.0 °F 59% 30.06 in 10.0 mi NE 12.7 mph - N/A   Overcast
3:53 PM 66.9 °F 52.0 °F 59% 30.05 in 10.0 mi ENE 8.1 mph - N/A   Overcast
4:53 PM 66.9 °F 53.1 °F 61% 30.05 in 10.0 mi NE 11.5 mph - N/A   Mostly Cloudy
5:53 PM 66.0 °F 52.0 °F 60% 30.05 in 10.0 mi ENE 12.7 mph - N/A   Overcast
6:53 PM 64.0 °F 52.0 °F 65% 30.06 in 10.0 mi NE 9.2 mph - N/A   Overcast
7:53 PM 62.1 °F 52.0 °F 70% 30.08 in 10.0 mi NE 12.7 mph - N/A   Overcast
8:53 PM 60.1 °F 51.1 °F 72% 30.08 in 10.0 mi ENE 12.7 mph - N/A   Overcast
9:53 PM 59.0 °F 51.1 °F 75% 30.11 in 10.0 mi ENE 11.5 mph - N/A   Overcast
10:53 PM 57.9 °F 51.1 °F 78% 30.11 in 10.0 mi East 11.5 mph - N/A   Overcast
11:32 PM 57.9 °F 52.0 °F 81% 30.15 in 10.0 mi East 8.1 mph - N/A   Overcast
11:53 PM 57.9 °F 52.0 °F 81% 30.10 in 10.0 mi East 8.1 mph - N/A   Overcast